Voltar ao catálogo

TANSEI 1

MS-T1

AtivoCiênciaLEO
NORAD 4952·PAYLOAD·🇯🇵 Japan

Lançado Feb 16, 1971 de Uchinoura Space Center

Loading…

Próximas Passagens (próximas 24 horas)

TLE

AtualizadoSource: Space-Track

Época: Sep 14, 2026, 00:57 UTC

1 04952U 71011A   26257.03992979  .00000095  00000-0  40011-4 0  9994
2 04952  29.6662 248.1465 0079570 343.3774  57.4945 13.58642083760627

Acompanhe TANSEI 1 em tempo real com AllMySat

Download on the App Store